Regional Weather Roundup
Issued by NWS

Home | Current Version | Previous Version | Text Only | Print | Product List | Glossary Off
Versions: 1 2 3 4 5 6 7 8 9 10 11 12 13 14 15 16 17 18 19 20 21 22 23 24 25 26 27 28 29 30 31 32 33 34 35 36 37 38 39 40 41 42 43 44 45 46 47 48 49 50

000
ASUS44 KMEG 040110
RWRTN
TENNESSEE HOURLY STATE WEATHER ROUNDUP
NATIONAL WEATHER SERVICE MEMPHIS TN
800 PM CDT SUN MAY 03 2015

TNZ002-004-019-021-049-052-054-088>092-040200-
WEST TENNESSEE

CITY           SKY/WX    TMP DP  RH WIND       PRES   REMARKS
MEMPHIS INTL   PTCLDY    77  49  37 SE5       30.04S
NWS MEMPHIS      N/A     73 N/A N/A MISG        N/A
JACKSON        MOCLDY    67  53  61 CALM      30.07S
DYERSBURG      PTCLDY    73  41  31 SE6       30.06S
PARIS          CLEAR     64  52  63 CALM      30.08R
LEXINGTON      CLEAR     66  54  63 CALM      30.08R
$$

TNZ008-025-027-028-033-062-065-066-040200-
NORTH MIDDLE TENNESSEE

CITY           SKY/WX    TMP DP  RH WIND       PRES   REMARKS
NASHVILLE      MOCLDY    71  49  45 S3        30.10R
CLARKSVILLE    PTCLDY    73  48  41 SW5       30.07R
SMYRNA         PTCLDY    69  51  52 CALM      30.11R
COOKEVILLE     CLEAR     61  54  77 CALM      30.12R
CROSSVILLE     CLEAR     67  46  47 S3        30.16R
$$

TNZ061-075-076-078-094-096-097-040200-
SOUTH MIDDLE TENNESSEE

CITY           SKY/WX    TMP DP  RH WIND       PRES   REMARKS
FAYETTEVILLE     N/A     70  48  46 CALM      30.13R
TULLAHOMA      CLEAR     64  50  59 CALM      30.14R
WINCHESTER     CLEAR     64  52  63 CALM      30.14R
MCMINNVILLE    CLEAR     66  52  59 CALM      30.13R
COLUMBIA       CLEAR     70  52  52 SE3       30.09R
SHELBYVILLE    CLEAR     70  52  52 CALM      30.13R
$$

TNZ017-018-042-046-047-040200-
NORTHEAST TENNESSEE

CITY           SKY/WX    TMP DP  RH WIND       PRES   REMARKS
TRI CITIES     PTCLDY    64  45  49 CALM      30.15R
ELIZABETHTON   CLEAR     59  46  63 CALM      30.16R
$$

TNZ012-013-036-069-073-074-040200-
CENTRAL EAST TENNESSEE

CITY           SKY/WX    TMP DP  RH WIND       PRES   REMARKS
KNOXVILLE      PTCLDY    71  46  40 CALM      30.12R
OAK RIDGE      PTCLDY    69  49  48 CALM      30.14R
GATLINBURG     CLEAR     66  46  48 CALM      30.13R
MORRISTOWN     CLEAR     66  50  55 CALM      30.15R
$$

TNZ083-085-099-040200-
SOUTHEAST TENNESSEE

CITY           SKY/WX    TMP DP  RH WIND       PRES   REMARKS
CHATTANOOGA    MOCLDY    70  46  42 CALM      30.13R
$$

SKY/WX REPORTED AS FAIR MEANS FEW OR NO CLOUDS BELOW
12 THOUSAND FEET.



USA.gov is the U.S. government's official web portal to all federal, state and local government web resources and services.